Location: El Recuerdo
(3.6589°N, 75.6172°W)
Time: 20:43:51
(UTC+00:00)

Meteor 1-5 Rocket - Pass Details

Date: 20 March 2026
Orbit: 787 x 914 km, 81.2° (Epoch: 11 April)

Event Time Altitude Azimuth Distance (km) Brightness Sun altitude
Rises 10:28:39 0° 358° (N) 3,267 7.3 -10.3°
Reaches altitude 10° 10:31:01 10° 0° (N) 2,337 6.5 -9.7°
Maximum altitude 10:36:15 74° 85° (E) 819 4.4 -8.4°
Drops below altitude 10° 10:41:33 10° 170° (S) 2,365 6.7 -7.1°
Sets 10:43:57 0° 171° (S) 3,308 7.4 -6.5°
